Location: Westfield
(45.3617°N, 66.2417°W)
Time: 23:25:35
(UTC-03:00)

ISS - Visible Passes

Search period start: 16 July 2018 00:00
Search period end: 26 July 2018 00:00
Orbit: 402 x 408 km, 51.6° (Epoch: 17 July)

Date Brightness Start Highest point End Pass type
(mag) Time Alt. Az. Time Alt. Az. Time Alt. Az.
16 Jul -0.9 00:37:10 10° ENE 00:37:10 10° ENE 00:37:13 10° ENE visible
16 Jul -2.2 02:09:48 30° NW 02:10:37 35° NNW 02:13:41 10° NE visible
16 Jul -1.6 03:44:49 10° NW 03:47:42 27° N 03:50:34 10° ENE visible
17 Jul -2.5 01:19:02 40° NNE 01:19:02 40° NNE 01:21:37 10° NE visible
17 Jul -1.6 02:52:34 10° WNW 02:55:25 26° N 02:58:17 10° ENE visible
17 Jul -2.4 04:29:18 10° NW 04:32:27 41° NNE 04:35:37 10° E visible
18 Jul -2.1 00:27:56 26° NE 00:27:56 26° NE 00:29:34 10° ENE visible
18 Jul -1.7 02:00:30 11° WNW 02:03:08 28° N 02:06:03 10° NE visible
18 Jul -1.9 03:37:12 10° NW 03:40:14 32° NNE 03:43:15 10° E visible
18 Jul -3.9 05:13:39 10° WNW 05:16:56 71° SSW 05:20:13 10° SE visible
18 Jul -3.2 23:35:08 41° ENE 23:35:08 41° ENE 23:37:27 10° ENE visible
19 Jul -2.0 01:07:52 10° W 01:10:52 32° NNW 01:13:53 10° NE visible
19 Jul -1.6 02:45:04 10° NW 02:47:58 28° N 02:50:52 10° ENE visible
19 Jul -3.5 04:21:32 10° WNW 04:24:50 71° NNE 04:28:07 10° ESE visible
19 Jul -3.5 22:39:02 10° SW 22:42:07 40° SE 22:45:14 10° ENE visible
20 Jul -2.5 00:15:29 10° W 00:18:37 41° NNW 00:21:47 10° NE visible
20 Jul -1.5 01:52:49 10° WNW 01:55:40 26° N 01:58:30 10° ENE visible
20 Jul -2.8 03:29:27 10° NW 03:32:39 47° NNE 03:35:52 10° E visible
20 Jul -3.1 05:06:04 10° WNW 05:09:04 32° SW 05:12:04 10° SSE visible
20 Jul -2.6 21:47:28 10° SSW 21:50:08 23° SE 21:52:48 10° E visible
20 Jul -3.3 23:23:10 10° WSW 23:26:25 59° NNW 23:29:41 10° ENE visible
21 Jul -1.6 01:00:28 10° WNW 01:03:20 27° N 01:06:13 10° NE visible
21 Jul -2.1 02:37:20 10° NW 02:40:24 35° NNE 02:43:29 10° E visible
21 Jul -3.8 04:13:48 10° WNW 04:17:02 57° SW 04:20:16 10° SE visible
21 Jul -3.9 22:30:58 10° WSW 22:34:15 87° SSE 22:37:32 10° ENE visible
22 Jul -1.8 00:08:04 10° WNW 00:11:01 30° N 00:13:59 10° NE visible
22 Jul -1.8 01:45:11 10° NW 01:48:07 29° N 01:51:03 10° ENE visible
22 Jul -3.9 03:21:37 10° WNW 03:24:55 84° NNE 03:28:13 10° ESE visible
22 Jul -2.1 04:59:00 10° W 05:01:01 15° SW 05:03:02 10° S visible
22 Jul -3.6 21:38:58 10° SW 21:42:08 50° SE 21:45:20 10° ENE visible
22 Jul -2.2 23:15:38 10° W 23:18:43 37° NNW 23:21:49 10° NE visible
23 Jul -1.6 00:52:55 10° WNW 00:55:47 26° N 00:58:16 12° ENE visible
23 Jul -1.7 02:29:29 10° NW 02:30:48 21° NW 02:30:48 21° NW visible
23 Jul -2.9 22:23:14 10° W 22:26:27 51° NNW 22:29:41 10° NE visible
24 Jul -1.6 00:00:35 10° WNW 00:03:25 26° N 00:06:16 10° ENE visible
24 Jul -1.9 01:37:21 10° NW 01:39:23 29° NNW 01:39:23 29° NNW visible
24 Jul -1.7 23:08:09 10° WNW 23:11:03 28° N 23:13:58 10° NE visible
25 Jul -2.0 00:45:10 10° NW 00:48:09 30° NNE 00:48:26 30° NNE visible
25 Jul -2.0 22:15:40 10° W 22:18:43 34° NNW 22:21:45 10° NE visible
25 Jul -1.7 23:52:55 10° NW 23:55:47 27° N 23:57:39 16° NE visible
